User: anonymous
Location: Owatonna
(44.0840°N, 93.2260°W)
Time: 10:33:11
(UTC-05:00)
Language:

ALOS - Orbit

View from above orbital plane
View from above orbital plane
View from above satellite
View from above satellite

Ground track
Ground track

The orbit data is extracted from the following two-line orbital elements,

1 28931U 06002A   14259.47057329  .00000845  00000-0  18019-3 0   438
2 28931 097.9742 314.3108 0001011 155.5157 329.3183 14.61287030460657
Epoch (UTC): 16 September 2014 11:17:37
Eccentricity: 0.0001011
inclination: 97.9742°
perigee height: 688 km
apogee height: 690 km
right ascension of ascending node: 314.3108°
argument of perigee: 155.5157°
revolutions per day: 14.61287030
mean anomaly at epoch: 329.3183°
orbit number at epoch: 46065

The dashed part of the orbit path shows where the satellite is in the earth's shadow,  

DLR